Location: Asheville, NC
(35.6000°N, 82.5500°W)
Time: 10:13:06

FO-29 - Pass Details

Date: 12 March 2018
Orbit: 800 x 1321 km, 98.5° (Epoch: 18 March)

Event Time Altitude Azimuth Distance (km) Brightness Sun altitude
Rises 22:57:53 0° 355° (N) 4,007 13.1 -40.4°
Reaches altitude 10° 23:01:15 10° 338° (NNW) 3,126 12.6 -41.0°
Maximum altitude 23:05:55 19° 297° (WNW) 2,608 12.2 -41.8°
Drops below altitude 10° 23:10:49 10° 257° (WSW) 3,291 12.6 -42.6°
Sets 23:14:31 0° 241° (WSW) 4,295 13.1 -43.2°
